Location: ????????
(55.0097°N, 38.5678°E)
Time: 17:48:34
(UTC+00:00)

Envisat - Visible Passes

Search period start: 15 June 2025 00:00
Search period end: 25 June 2025 00:00
Orbit: 761 x 763 km, 98.3° (Epoch: 15 June)

Date Brightness Start Highest point End Pass type
(mag) Time Alt. Az. Time Alt. Az. Time Alt. Az.
15 Jun 5.4 23:00:14 10° NE 23:03:27 17° E 23:06:38 10° SE visible
17 Jun 4.9 23:23:11 10° NE 23:27:20 25° E 23:31:27 10° SE visible
18 Jun 5.5 22:46:48 10° NE 22:49:06 13° E 22:51:25 10° ESE visible
19 Jun 4.3 23:46:27 10° NNE 23:51:09 36° E 23:55:48 10° SSE visible
20 Jun 5.2 23:09:23 10° NE 23:13:03 20° E 23:16:41 10° SE visible
22 Jun 4.7 23:32:30 10° NNE 23:36:54 29° E 23:41:16 10° SSE visible
23 Jun 5.4 22:55:45 10° NE 22:58:43 15° E 23:01:42 10° ESE visible
